Location: Ostrava
(49.8330°N, 18.2830°E)
Time: 05:30:56
(UTC+02:00)

NOAA 19 - Visible Passes

Search period start: 23 June 2017 00:00
Search period end: 03 July 2017 00:00
Orbit: 842 x 861 km, 99.1° (Epoch: 22 June)

Date Brightness Start Highest point End Pass type
(mag) Time Alt. Az. Time Alt. Az. Time Alt. Az.
23 Jun 7.9 02:47:07 10° ENE 02:48:32 11° E 02:49:58 10° E visible
26 Jun 6.6 03:50:32 10° NNE 03:55:39 36° E 04:00:42 10° SSE visible
27 Jun 7.0 03:39:13 10° NE 03:44:03 30° E 03:48:51 10° SSE visible
28 Jun 7.2 03:27:59 10° NE 03:32:27 24° E 03:36:52 10° SE visible
29 Jun 7.5 03:16:49 10° NE 03:20:49 20° E 03:24:46 10° SE visible
30 Jun 7.6 03:05:49 10° NE 03:09:10 16° E 03:12:29 10° SE visible
01 Jul 7.8 02:55:03 10° ENE 02:57:29 13° E 02:59:54 10° ESE visible
